[[{"header":{"parameterUnit":"m.s-1","parameterCategory":2,"la1":30.2991,"la2":30.254,"lo1":-89.0895,"lo2":-89.0444,"dy":0.0017,"dx":0.0017,"nx":28,"ny":28,"refTime":"2023-07-22T21:00:00:Z","depth":"0","parameterNumber":2,"parameterNumberName":"U-component_of_CURRENTS"},"data":[0,0,0,0,0,0,0,0,0,0,0,0,0,0,0,0,0,0,0,0,0,0,0,0,0,0,0,0,0,0,0,0,0,0,0,0,0,0,0,0,0,0,0,0,0,0,0,0,0,0,0,0,0,0,0,0,0,0,0.1854,0.1854,0,0.1921,0.1922,0.1923,0.1939,0.1938,0.1937,0.1937,0.202,0.2023,0.2026,0,0,0,0,0,0,0,0,0,0,0,0,0,0.1733,0.1736,0.1854,0.1854,0.1855,0.1921,0.1922,0.1924,0.1939,0.1938,0.1937,0.1936,0.2019,0.2023,0.2026,0,0,0,0,0,0,0,0,0,0,0,0,0,0.1795,0.1737,0.1854,0.1868,0.187,0.1921,0.1922,0.1924,0.1939,0.1938,0.1937,0.1936,0.2018,0.2022,0.2027,0.2078,0,0,0.204,0.2042,0,0,0,0,0,0,0,0,0.1792,0.18,0.1865,0.1867,0.1869,0.1917,0.191,0.1975,0.194,0.1917,0.1937,0.1935,0.1986,0.1993,0.2013,0.2081,0.2085,0.2041,0.2043,0.2045,0.2047,0,0,0,0,0,0,0,0.1787,0.1797,0.1884,0.1866,0.1868,0.1869,0.1877,0.1923,0.196,0.1919,0.1919,0.1921,0.1987,0.2009,0.2015,0.2086,0.2041,0.2045,0.2047,0.2049,0.2327,0.2332,0,0,0,0,0,0,0.1774,0.1793,0.1882,0.1886,0.1823,0.1872,0.1881,0.1906,0.1959,0.1965,0.1922,0.1922,0.2002,0.201,0.2018,0.2158,0.2045,0.2049,0.2052,0.2323,0.2329,0.2334,0,0,0,0,0,0,0.1772,0.1782,0.1879,0.1836,0.1848,0.1875,0.1903,0.1908,0.193,0.1961,0.1968,0.1938,0.2001,0.2012,0.2111,0.2158,0.2051,0.2055,0.2317,0.2325,0.2331,0.2388,0,0,0,0,0,0,0.1769,0.1782,0.1808,0.1837,0.185,0.193,0.1904,0.191,0.1931,0.1931,0.1977,0.1984,0.2001,0.2105,0.2116,0.2162,0.2059,0.2311,0.232,0.2329,0.238,0.2396,0.241,0,0,0,0,0,0.1764,0.1827,0.181,0.182,0.1882,0.1931,0.194,0.1955,0.1933,0.1965,0.2017,0.1982,0.2168,0.2113,0.2124,0.2172,0.2307,0.2318,0.2328,0.2373,0.2393,0.241,0,0,0,0,0,0,0.179,0.1834,0.1817,0.1887,0.1904,0.1933,0.1968,0.1959,0.2023,0.2023,0.2042,0.2057,0.2166,0.2176,0.2113,0.2288,0.2232,0.2246,0.2263,0.2282,0.2296,0.2238,0.2063,0,0,0,0,0,0.1802,0.1854,0.1876,0.1923,0.1938,0.1944,0.1966,0.1968,0.2015,0.2039,0.2079,0.214,0.2222,0.2253,0.2326,0.241,0.2397,0.2455,0.247,0.2482,0.245,0.2493,0.2506,0.2369,0.2369,0.2368,0,0,0.1818,0.1848,0.1875,0.1929,0.1943,0.1966,0.1957,0.1995,0.2021,0.2041,0.2122,0.2196,0.2263,0.2376,0.2423,0.2383,0.2529,0.2495,0.2504,0.2465,0.2505,0.2517,0.2528,0.2376,0.2375,0.2373,0,0,0.1851,0.1904,0.1938,0.1958,0.1981,0.2001,0.2008,0.2049,0.2084,0.2168,0.2207,0.2308,0.2412,0.2479,0.252,0.266,0.2615,0.2694,0.2702,0.2747,0.2756,0.2764,0.2799,0.2809,0.2688,0.2688,0.2688,0,0.1851,0.1902,0.1954,0.1972,0.1996,0.201,0.2032,0.2075,0.2146,0.2188,0.2203,0.2391,0.2456,0.2574,0.2641,0.2685,0.2695,0.2618,0.2758,0.2765,0.2772,0.2806,0.2816,0.2692,0.2691,0.2691,0.2691,0,0.1892,0.1921,0.195,0.1978,0.2022,0.2054,0.2102,0.2153,0.2196,0.2236,0.2376,0.2488,0.2583,0.2649,0.2687,0.279,0.278,0.2775,0.2689,0.2787,0.282,0.283,0.2698,0.2696,0.2695,0.2694,0,0,0.1884,0.1962,0.1957,0.1959,0.203,0.2055,0.213,0.2203,0.2217,0.2339,0.2393,0.2586,0.2629,0.2682,0.2756,0.2805,0.2902,0.2808,0.2809,0.2801,0.2992,0.2991,0.3001,0.2912,0.2913,0.2914,0.3005,0,0.1874,0.1914,0.1972,0.1992,0.2015,0.2075,0.213,0.2198,0.2272,0.2337,0.2471,0.2566,0.2646,0.2698,0.2771,0.2867,0.2924,0.2876,0.2932,0.2934,0.2885,0.3011,0.293,0.3004,0.3014,0.3015,0.3017,0,0.1863,0.1899,0.1933,0.1983,0.1998,0.2018,0.2094,0.2141,0.2246,0.2314,0.2429,0.2516,0.2663,0.2689,0.2874,0.2837,0.2918,0.2978,0.2982,0.295,0.295,0.2907,0.302,0.2904,0.303,0.3029,0.3028,0,0.1806,0.1856,0.1888,0.1905,0.1975,0.2,0.2038,0.2128,0.2174,0.2285,0.2328,0.2497,0.2591,0.2709,0.2891,0.2875,0.3054,0.3043,0.3115,0.3116,0.3038,0.3029,0.2998,0.3144,0.3144,0.3144,0.3143,0,0.1772,0.1776,0.1848,0.1852,0.1871,0.1936,0.1955,0.2019,0.2101,0.2156,0.2298,0.2382,0.2598,0.2744,0.2871,0.3042,0.3053,0.3126,0.3145,0.3066,0.3058,0.2944,0.2921,0.3147,0.3146,0.3146,0.3145,0,0.1689,0.1739,0.1755,0.1822,0.1838,0.184,0.1902,0.1914,0.1996,0.2067,0.2113,0.2321,0.2519,0.2719,0.2933,0.3026,0.3106,0.3223,0.3121,0.3126,0.3048,0.3035,0.2999,0.2918,0.3289,0.329,0.329,0,0.1665,0.1657,0.1715,0.1718,0.1742,0.1758,0.1775,0.1863,0.1895,0.2039,0.2082,0.2289,0.2462,0.2773,0.2987,0.3202,0.3128,0.3216,0.3172,0.3039,0.3039,0.2964,0.2891,0.3112,0.3111,0.311,0.3109,0,0.1602,0.1609,0.1634,0.1651,0.1661,0.1674,0.1712,0.1728,0.1835,0.1908,0.2048,0.2183,0.2506,0.2709,0.2994,0.3135,0.3063,0.3204,0.3092,0.2921,0.281,0.2742,0.305,0.3102,0.3103,0.3103,0.3104,0.3104,0.1565,0.1554,0.1585,0.1589,0.1597,0.1607,0.1613,0.1667,0.1727,0.1845,0.1988,0.2159,0.2393,0.2797,0.2953,0.3053,0.3048,0.298,0.2986,0.2928,0.2807,0.31,0.3156,0.3157,0.3158,0.3158,0.3159,0,0.156,0.1537,0.1528,0.1546,0.1534,0.1561,0.1589,0.1601,0.1665,0.1783,0.1915,0.2108,0.2327,0.2556,0.2734,0.2756,0.2758,0.2745,0.2588,0.2535,0.2814,0.2757,0.2697,0.2697,0.2697,0.2697,0.2697,0.2697,0.1558,0.1543,0.1527,0.1499,0.1495,0.1499,0.1511,0.1539,0.1608,0.1703,0.1795,0.1915,0.2045,0.2231,0.2334,0.243,0.2338,0.238,0.2341,0.2499,0.2518,0.2536,0.2472,0.2353,0.2353,0.1953,0.195,0.1948]},{"header":{"parameterUnit":"m.s-1","parameterCategory":2,"la1":30.2991,"la2":30.254,"lo1":-89.0895,"lo2":-89.0444,"dy":0.0017,"dx":0.0017,"nx":28,"ny":28,"refTime":"2023-07-22T21:00:00:Z","depth":"0","parameterNumber":3,"parameterNumberName":"V-component_of_CURRENTS"},"data":[0,0,0,0,0,0,0,0,0,0,0,0,0,0,0,0,0,0,0,0,0,0,0,0,0,0,0,0,0,0,0,0,0,0,0,0,0,0,0,0,0,0,0,0,0,0,0,0,0,0,0,0,0,0,0,0,0,0,-0.0062,-0.0062,0,-0.0063,-0.0063,-0.0063,-0.012,-0.0121,-0.0123,-0.0124,-0.0122,-0.0121,-0.012,0,0,0,0,0,0,0,0,0,0,0,0,0,-0.0095,-0.0094,-0.0062,-0.0062,-0.0062,-0.0063,-0.0063,-0.0063,-0.012,-0.0121,-0.0123,-0.0125,-0.0123,-0.0121,-0.012,0,0,0,0,0,0,0,0,0,0,0,0,0,-0.0087,-0.0094,-0.0062,-0.0089,-0.0092,-0.0063,-0.0063,-0.0063,-0.0119,-0.0121,-0.0124,-0.0126,-0.0123,-0.0121,-0.0119,-0.0065,0,0,-0.0113,-0.0112,0,0,0,0,0,0,0,0,-0.0088,-0.0086,-0.0085,-0.0088,-0.009,-0.0093,-0.0074,-0.0063,-0.0119,-0.011,-0.0124,-0.0127,-0.011,-0.0109,-0.0106,-0.0065,-0.0064,-0.0113,-0.0112,-0.0111,-0.011,0,0,0,0,0,0,0,-0.0088,-0.0086,-0.0063,-0.0085,-0.0088,-0.0097,-0.0099,-0.0072,-0.0099,-0.0111,-0.0115,-0.0113,-0.0112,-0.0108,-0.0106,-0.0064,-0.0113,-0.0111,-0.011,-0.0109,0.0009,0.001,0,0,0,0,0,0,-0.0084,-0.0087,-0.0063,-0.0063,-0.0093,-0.0095,-0.0096,-0.009,-0.0099,-0.0102,-0.0111,-0.0115,-0.011,-0.0109,-0.0107,-0.0015,-0.0111,-0.0109,-0.0108,0.0007,0.0009,0.0011,0,0,0,0,0,0,-0.0085,-0.0082,-0.0063,-0.0075,-0.0073,-0.0092,-0.0085,-0.0089,-0.0083,-0.0099,-0.0103,-0.01,-0.0112,-0.0109,-0.0072,-0.0017,-0.0108,-0.0106,0.0004,0.0007,0.001,0.0151,0,0,0,0,0,0,-0.0086,-0.0082,-0.0076,-0.0074,-0.0072,-0.0029,-0.0083,-0.0088,-0.0079,-0.0085,-0.009,-0.0093,-0.0113,-0.0075,-0.007,-0.0015,-0.0105,0.0002,0.0006,0.0009,0.0144,0.0159,0.0171,0,0,0,0,0,-0.0087,-0.0057,-0.0076,-0.0073,-0.0063,-0.0027,-0.0026,-0.0048,-0.0076,-0.0055,-0.0064,-0.0093,-0.005,-0.0071,-0.0066,-0.0009,0.0,0.0005,0.0009,0.0138,0.0156,0.0171,0,0,0,0,0,0,-0.0052,-0.006,-0.0081,-0.0052,-0.0038,-0.0037,-0.0022,-0.0033,-0.0023,-0.0033,-0.0058,-0.0058,-0.0008,-0.0028,-0.0051,0.0031,-0.0033,-0.0027,0.0064,0.008,0.0094,0.0102,-0.0103,0,0,0,0,0,-0.0045,-0.003,-0.0034,-0.0003,-0.0004,-0.0011,-0.0002,-0.0009,-0.0002,-0.0001,0.0002,-0.0,0.0017,0.0031,0.004,0.0099,0.0064,0.0132,0.0146,0.0157,0.0166,0.0149,0.0162,0.0025,0.0025,0.0025,0,0,-0.0014,-0.002,-0.0008,0.0004,0.0004,0.0035,-0.001,0.0019,0.0059,0.0002,0.0062,0.0053,0.0041,0.0098,0.0119,0.0089,0.0183,0.0163,0.0173,0.0176,0.0155,0.0168,0.018,0.0028,0.0028,0.0027,0,0,0.0053,0.0039,0.0064,0.0073,0.0079,0.0083,0.0096,0.011,0.0122,0.018,0.0144,0.0172,0.0205,0.0211,0.0215,0.0311,0.0253,0.0309,0.0394,0.0378,0.0389,0.0398,0.0394,0.0401,0.0318,0.0318,0.0319,0,0.008,0.0106,0.0086,0.0109,0.0125,0.011,0.0151,0.0178,0.0212,0.0233,0.0214,0.0261,0.0263,0.0319,0.0354,0.0347,0.0318,0.0338,0.0396,0.0404,0.0411,0.0404,0.0411,0.0326,0.0325,0.0324,0.0323,0,0.0152,0.0173,0.0196,0.0212,0.0239,0.0275,0.0296,0.0333,0.0346,0.0366,0.0426,0.0428,0.0443,0.0463,0.0447,0.0505,0.0464,0.0414,0.0357,0.0433,0.0421,0.0426,0.0336,0.0334,0.0331,0.033,0,0,0.0183,0.0234,0.0234,0.0257,0.0286,0.032,0.0391,0.0445,0.048,0.0527,0.0579,0.0634,0.0612,0.0614,0.0595,0.0605,0.0654,0.0543,0.0538,0.0543,0.0622,0.0611,0.0613,0.0602,0.0603,0.0604,0.0603,0,0.023,0.0303,0.0315,0.0396,0.0429,0.0439,0.0504,0.0555,0.0589,0.0641,0.0657,0.0697,0.0676,0.0681,0.0694,0.0653,0.0667,0.0659,0.0543,0.054,0.0523,0.0619,0.0623,0.0623,0.0606,0.0607,0.0607,0,0.0265,0.031,0.0394,0.0469,0.0481,0.0531,0.0599,0.0657,0.0718,0.0742,0.0778,0.0775,0.0822,0.0772,0.0763,0.0751,0.0708,0.0677,0.0674,0.0614,0.0536,0.0538,0.063,0.0612,0.0613,0.0612,0.0612,0,0.0272,0.0357,0.043,0.0452,0.0536,0.0573,0.0619,0.0683,0.0731,0.0794,0.0824,0.0856,0.0871,0.0831,0.0794,0.0767,0.0765,0.0704,0.0659,0.0657,0.0615,0.0607,0.0677,0.0695,0.0695,0.0695,0.0695,0,0.03,0.0352,0.0436,0.0466,0.0544,0.0592,0.0664,0.0711,0.0776,0.0841,0.0865,0.0915,0.0882,0.0881,0.0823,0.0774,0.0782,0.0701,0.0665,0.0667,0.0664,0.0605,0.0524,0.0695,0.0695,0.0695,0.0695,0,0.0299,0.0354,0.0426,0.0515,0.0547,0.0595,0.0684,0.0736,0.0791,0.0872,0.0896,0.0963,0.097,0.0934,0.0882,0.0814,0.0725,0.0732,0.0752,0.0719,0.0643,0.0567,0.0465,0.0515,0.0679,0.0679,0.0679,0,0.0325,0.0355,0.0444,0.0484,0.0524,0.0599,0.0653,0.0732,0.0792,0.0905,0.0952,0.1001,0.1053,0.0993,0.0892,0.0802,0.0738,0.073,0.0684,0.0676,0.0563,0.0466,0.0511,0.069,0.069,0.069,0.069,0,0.0347,0.0357,0.041,0.0489,0.055,0.0627,0.0714,0.0765,0.0864,0.0939,0.1045,0.1098,0.107,0.1024,0.0915,0.083,0.0689,0.0724,0.0708,0.0586,0.0489,0.0508,0.0661,0.069,0.069,0.069,0.069,0.069,0.0348,0.0376,0.0431,0.0506,0.0573,0.0665,0.0734,0.083,0.0935,0.1089,0.1116,0.1223,0.1153,0.1018,0.0903,0.0721,0.067,0.0662,0.0574,0.0484,0.0522,0.069,0.0676,0.0676,0.0676,0.0676,0.0676,0,0.036,0.0395,0.0459,0.0548,0.0619,0.0663,0.0788,0.0869,0.0999,0.1146,0.1252,0.1302,0.1198,0.1054,0.0789,0.062,0.0564,0.0546,0.0435,0.05,0.0658,0.0657,0.0648,0.0648,0.0648,0.0648,0.0648,0.0648,0.0373,0.042,0.0458,0.0578,0.0642,0.0758,0.0834,0.0959,0.1079,0.1277,0.1383,0.1466,0.1364,0.0872,0.0579,0.0509,0.0421,0.0292,0.0332,0.0449,0.0455,0.046,0.045,0.0398,0.0397,0.0248,0.0245,0.0244]}],[{"header":{"parameterUnit":"m.s-1","parameterCategory":2,"la1":30.2991,"la2":30.254,"lo1":-89.0895,"lo2":-89.0444,"dy":0.0017,"dx":0.0017,"nx":28,"ny":28,"refTime":"2023-07-22T21:00:00:Z","depth":"2","parameterNumber":2,"parameterNumberName":"U-component_of_CURRENTS"},"data":[0,0,0,0,0,0,0,0,0,0,0,0,0,0,0,0,0,0,0,0,0,0,0,0,0,0,0,0,0,0,0,0,0,0,0,0,0,0,0,0,0,0,0,0,0,0,0,0,0,0,0,0,0,0,0,0,0,0,0.0199,0.0203,0,0.0389,0.0389,0.0389,0.0429,0.043,0.0431,0.0432,0.0513,0.0514,0.0515,0,0,0,0,0,0,0,0,0,0,0,0,0,0.0013,0.0013,0.0199,0.0204,0.0209,0.0389,0.0389,0.0389,0.0429,0.043,0.0431,0.0432,0.0512,0.0514,0.0515,0,0,0,0,0,0,0,0,0,0,0,0,0,0.0112,0.0013,0.0198,0.0269,0.0279,0.0389,0.0389,0.0389,0.0428,0.043,0.0431,0.0433,0.0512,0.0514,0.0515,0.0497,0,0,0.0521,0.0522,0,0,0,0,0,0,0,0,0.0106,0.0115,0.0254,0.0265,0.0277,0.041,0.0356,0.0429,0.0428,0.0344,0.0432,0.0434,0.0484,0.0489,0.0485,0.0501,0.0504,0.0521,0.0522,0.0523,0.0524,0,0,0,0,0,0,0,0.0099,0.0109,0.0247,0.026,0.0274,0.0344,0.0354,0.0369,0.0381,0.0351,0.0361,0.0424,0.0486,0.0483,0.0487,0.0506,0.0521,0.0523,0.0524,0.0525,0.0609,0.0611,0,0,0,0,0,0,0.0119,0.0101,0.0242,0.0256,0.0223,0.0347,0.0358,0.0344,0.0384,0.04,0.0423,0.0426,0.0479,0.0485,0.049,0.0463,0.0523,0.0525,0.0526,0.0608,0.061,0.0611,0,0,0,0,0,0,0.0113,0.0126,0.0235,0.0209,0.0231,0.035,0.0333,0.0348,0.0406,0.0444,0.0452,0.0478,0.048,0.0488,0.0489,0.0468,0.0526,0.0527,0.0607,0.0609,0.061,0.0415,0,0,0,0,0,0,0.0105,0.012,0.013,0.0207,0.0234,0.0321,0.0335,0.0351,0.0453,0.0458,0.0493,0.0498,0.0482,0.0486,0.0491,0.0471,0.0529,0.0606,0.0608,0.061,0.042,0.0409,0.0401,0,0,0,0,0,0.0096,0.0048,0.0126,0.0148,0.0235,0.0325,0.0341,0.0416,0.0455,0.0471,0.0463,0.05,0.0506,0.0485,0.0492,0.0472,0.0604,0.0607,0.061,0.0424,0.0411,0.0401,0,0,0,0,0,0,-0.0036,0.0055,0.0139,0.0125,0.0258,0.0342,0.0355,0.045,0.0461,0.0475,0.048,0.0482,0.0471,0.0528,0.0507,0.0519,0.0577,0.0581,0.0435,0.0423,0.0414,0.0416,0.053,0,0,0,0,0,-0.0044,-0.0068,0.0094,0.0091,0.0146,0.0277,0.0335,0.0428,0.0465,0.0477,0.0462,0.0483,0.048,0.0497,0.0492,0.0499,0.0521,0.0513,0.0503,0.0494,0.0509,0.0495,0.0483,0.0619,0.0619,0.0619,0,0,-0.0078,-0.0039,-0.0036,0.0067,0.0142,0.0193,0.0302,0.0409,0.043,0.0482,0.0411,0.0432,0.0474,0.0435,0.0447,0.0486,0.0462,0.0497,0.0487,0.0508,0.0496,0.0482,0.0469,0.0621,0.0621,0.0621,0,0,-0.017,-0.0138,-0.0151,-0.005,0.0127,0.0168,0.0223,0.0335,0.0356,0.0363,0.0377,0.0376,0.038,0.0364,0.0375,0.0339,0.0395,0.0393,0.035,0.0334,0.032,0.0309,0.0271,0.0258,0.0406,0.0405,0.0405,0,-0.0138,-0.02,-0.0127,-0.0081,-0.0013,0.015,0.0201,0.0226,0.0314,0.033,0.0326,0.0318,0.0325,0.031,0.0281,0.0304,0.0325,0.0363,0.0311,0.0302,0.0293,0.0258,0.0246,0.0396,0.0397,0.0398,0.0399,0,-0.0236,-0.022,-0.0236,-0.0169,-0.0099,-0.0032,0.0071,0.01,0.0133,0.0182,0.0182,0.016,0.0194,0.0182,0.0206,0.0188,0.0226,0.0269,0.0313,0.0265,0.0233,0.0224,0.0383,0.0387,0.0389,0.0392,0,0,-0.0245,-0.0281,-0.0249,-0.0219,-0.0115,-0.0051,-0.0068,-0.0001,0.0034,0.0042,0.0046,-0.0001,0.007,0.0095,0.0135,0.0108,0.0014,0.0179,0.0182,0.0093,-0.0021,0.0064,0.0063,0.0059,0.0057,0.0056,-0.0042,0,-0.0276,-0.0273,-0.0289,-0.0262,-0.0247,-0.0139,-0.0168,-0.007,-0.0045,-0.0036,-0.0004,0.0003,0.0019,0.0063,0.0029,0.0037,-0.0006,0.0037,0.0085,0.0085,0.0127,0.0057,0.0011,-0.0071,-0.005,-0.0052,-0.0053,0,-0.0303,-0.0324,-0.0313,-0.0298,-0.0269,-0.0237,-0.0178,-0.0155,-0.0098,-0.0061,-0.0026,0.0015,-0.0007,0.0017,-0.004,0.0004,-0.0009,-0.0036,-0.0039,0.0115,0.0156,-0.0001,-0.0088,-0.0067,-0.0066,-0.0065,-0.0064,0,-0.0317,-0.031,-0.0334,-0.0303,-0.0279,-0.0239,-0.0211,-0.0137,-0.0097,-0.004,-0.0001,-0.0009,0.0016,-0.0027,-0.0045,-0.003,-0.0118,-0.0107,-0.0065,-0.0061,-0.0049,-0.0039,-0.0162,-0.0162,-0.0162,-0.0162,-0.0161,0,-0.0343,-0.0299,-0.0328,-0.0299,-0.028,-0.0232,-0.0174,-0.0121,-0.0058,-0.0002,0.002,0.0049,0.0017,-0.0012,-0.0058,-0.0079,-0.0123,-0.0086,-0.0076,-0.0116,-0.0112,-0.0038,-0.0022,-0.0165,-0.0164,-0.0164,-0.0163,0,-0.0278,-0.0303,-0.0301,-0.0301,-0.0274,-0.0221,-0.0121,-0.0079,-0.0021,0.0052,0.0078,0.0094,0.0086,0.0035,-0.0038,-0.0068,-0.0125,-0.0119,-0.0166,-0.0158,-0.007,-0.0062,-0.0113,-0.0111,-0.0109,-0.0107,-0.0106,0,-0.026,-0.0263,-0.0266,-0.0243,-0.0217,-0.0149,-0.0092,-0.0033,0.0011,0.008,0.0108,0.0135,0.0151,0.0066,0.0027,-0.0045,-0.0051,-0.0124,-0.0104,-0.0077,-0.0064,-0.0059,-0.0054,-0.0209,-0.0209,-0.0208,-0.0208,0,-0.0225,-0.0201,-0.0217,-0.0184,-0.013,-0.0088,-0.0007,0.0022,0.0087,0.013,0.0175,0.0182,0.017,0.0117,0.0071,-0.0006,-0.0115,-0.0112,-0.0102,-0.0169,-0.0162,-0.0149,-0.0144,-0.0205,-0.0205,-0.0205,-0.0206,-0.0206,-0.0191,-0.0177,-0.019,-0.0124,-0.0073,-0.0015,0.0036,0.0072,0.0127,0.0175,0.0172,0.0185,0.0074,0.0041,0.0006,0.0007,-0.0011,-0.0092,-0.0097,-0.0102,-0.005,-0.0034,-0.0048,-0.0047,-0.0047,-0.0046,-0.0046,0,-0.0201,-0.0127,-0.0109,-0.0071,-0.0005,0.0048,0.0103,0.0116,0.017,0.0158,0.0176,0.0073,0.0023,0.0016,0.0055,0.0007,-0.006,-0.003,-0.0112,-0.0117,-0.0121,-0.0071,-0.0075,-0.0074,-0.0073,-0.0072,0,0,-0.0183,-0.0141,-0.0113,-0.0004,0.0064,0.0159,0.0205,0.0194,0.0177,0.0138,0.0146,-0.0003,-0.0005,-0.0029,-0.0092,-0.0009,-0.007,-0.005,-0.0045,-0.0146,-0.0148,-0.0191,-0.0124,0,0,0,0,0]},{"header":{"parameterUnit":"m.s-1","parameterCategory":2,"la1":30.2991,"la2":30.254,"lo1":-89.0895,"lo2":-89.0444,"dy":0.0017,"dx":0.0017,"nx":28,"ny":28,"refTime":"2023-07-22T21:00:00:Z","depth":"2","parameterNumber":3,"parameterNumberName":"V-component_of_CURRENTS"},"data":[0,0,0,0,0,0,0,0,0,0,0,0,0,0,0,0,0,0,0,0,0,0,0,0,0,0,0,0,0,0,0,0,0,0,0,0,0,0,0,0,0,0,0,0,0,0,0,0,0,0,0,0,0,0,0,0,0,0,-0.04,-0.0401,0,-0.0456,-0.0457,-0.0458,-0.0519,-0.052,-0.052,-0.0521,-0.0612,-0.0614,-0.0616,0,0,0,0,0,0,0,0,0,0,0,0,0,-0.0336,-0.0337,-0.04,-0.0401,-0.0401,-0.0456,-0.0457,-0.0459,-0.0519,-0.052,-0.0521,-0.0521,-0.0611,-0.0614,-0.0616,0,0,0,0,0,0,0,0,0,0,0,0,0,-0.0378,-0.0338,-0.04,-0.0435,-0.0439,-0.0456,-0.0457,-0.0459,-0.0519,-0.052,-0.0521,-0.0521,-0.0611,-0.0613,-0.0616,-0.0617,0,0,-0.0625,-0.0626,0,0,0,0,0,0,0,0,-0.0376,-0.0381,-0.043,-0.0433,-0.0437,-0.0479,-0.0468,-0.0512,-0.0519,-0.0492,-0.0521,-0.0522,-0.0568,-0.0574,-0.0587,-0.0622,-0.0625,-0.0625,-0.0627,-0.0628,-0.0629,0,0,0,0,0,0,0,-0.0373,-0.0379,-0.0426,-0.043,-0.0434,-0.0445,-0.0452,-0.0477,-0.0528,-0.0495,-0.0498,-0.0499,-0.0571,-0.0584,-0.059,-0.0627,-0.0625,-0.0628,-0.0629,-0.0631,-0.0695,-0.0695,0,0,0,0,0,0,-0.0359,-0.0376,-0.0424,-0.0427,-0.0404,-0.0445,-0.0454,-0.0467,-0.0527,-0.0536,-0.0498,-0.0501,-0.0579,-0.0587,-0.0593,-0.0647,-0.0628,-0.0631,-0.0633,-0.0695,-0.0695,-0.0695,0,0,0,0,0,0,-0.0357,-0.0363,-0.0422,-0.0399,-0.0407,-0.0445,-0.046,-0.0468,-0.0475,-0.0529,-0.0539,-0.0496,-0.058,-0.0589,-0.0656,-0.0649,-0.0632,-0.0635,-0.0695,-0.0695,-0.0695,-0.0722,0,0,0,0,0,0,-0.0356,-0.0363,-0.0379,-0.0399,-0.0408,-0.0425,-0.0459,-0.0468,-0.0473,-0.0478,-0.053,-0.054,-0.0581,-0.0652,-0.0659,-0.0652,-0.0637,-0.0695,-0.0695,-0.0695,-0.0721,-0.0722,-0.0724,0,0,0,0,0,-0.0353,-0.0356,-0.0379,-0.0385,-0.0426,-0.0424,-0.0429,-0.0461,-0.0471,-0.0471,-0.0542,-0.0538,-0.0654,-0.0656,-0.0663,-0.0658,-0.0695,-0.0695,-0.0695,-0.072,-0.0722,-0.0724,0,0,0,0,0,0,-0.0339,-0.0363,-0.0389,-0.0403,-0.0412,-0.0432,-0.0435,-0.0447,-0.0498,-0.0512,-0.0564,-0.058,-0.0631,-0.0636,-0.0635,-0.0672,-0.0662,-0.0663,-0.0678,-0.068,-0.0681,-0.0646,-0.0639,0,0,0,0,0,-0.0342,-0.0339,-0.0373,-0.0372,-0.0385,-0.0407,-0.0413,-0.043,-0.0468,-0.0489,-0.0538,-0.0584,-0.0634,-0.0653,-0.0697,-0.0721,-0.0709,-0.0711,-0.0713,-0.0714,-0.0689,-0.0696,-0.0696,-0.0695,-0.0695,-0.0695,0,0,-0.0318,-0.034,-0.0332,-0.0367,-0.0381,-0.0395,-0.0413,-0.0412,-0.0425,-0.0492,-0.0542,-0.0599,-0.0645,-0.0697,-0.0712,-0.0701,-0.071,-0.0714,-0.0716,-0.0689,-0.0696,-0.0696,-0.0696,-0.0695,-0.0695,-0.0695,0,0,-0.0263,-0.0309,-0.0292,-0.0313,-0.0337,-0.0367,-0.036,-0.0395,-0.0419,-0.047,-0.0532,-0.0595,-0.0649,-0.0701,-0.0727,-0.075,-0.0727,-0.0741,-0.0716,-0.0724,-0.0724,-0.0724,-0.0716,-0.0715,-0.0732,-0.0732,-0.0732,0,-0.025,-0.0248,-0.0282,-0.029,-0.0304,-0.0351,-0.0348,-0.038,-0.0433,-0.0455,-0.0484,-0.0601,-0.0649,-0.0712,-0.0731,-0.0753,-0.0742,-0.0714,-0.0727,-0.0726,-0.0725,-0.0717,-0.0716,-0.0733,-0.0733,-0.0733,-0.0732,0,-0.0184,-0.0205,-0.0196,-0.0235,-0.0255,-0.0254,-0.0312,-0.0341,-0.0384,-0.0423,-0.0495,-0.0591,-0.0646,-0.0676,-0.0717,-0.0735,-0.0725,-0.074,-0.0723,-0.0727,-0.0719,-0.0716,-0.0735,-0.0734,-0.0734,-0.0734,0,0,-0.0144,-0.0145,-0.0167,-0.0165,-0.0231,-0.0235,-0.0273,-0.0317,-0.0334,-0.0415,-0.0442,-0.0557,-0.0599,-0.0629,-0.0692,-0.0709,-0.0719,-0.0712,-0.0712,-0.0706,-0.0716,-0.0629,-0.0618,-0.0735,-0.0735,-0.0734,-0.0715,0,-0.0103,-0.0085,-0.0116,-0.0119,-0.0115,-0.0181,-0.0207,-0.0257,-0.0317,-0.0365,-0.0459,-0.0515,-0.0582,-0.0613,-0.0648,-0.0715,-0.0711,-0.0721,-0.071,-0.0708,-0.0633,-0.0612,-0.059,-0.0562,-0.0713,-0.0713,-0.0712,0,-0.0077,-0.0063,-0.0033,-0.0049,-0.006,-0.0067,-0.0125,-0.0152,-0.0236,-0.0277,-0.0355,-0.0433,-0.0512,-0.0547,-0.0634,-0.0635,-0.0653,-0.0694,-0.0694,-0.0593,-0.0616,-0.058,-0.0553,-0.0709,-0.0709,-0.0709,-0.0709,0,-0.0037,-0.0041,-0.0002,-0.0008,-0.002,-0.0015,-0.0041,-0.0114,-0.0138,-0.021,-0.0239,-0.0352,-0.0402,-0.0464,-0.056,-0.0588,-0.0623,-0.0677,-0.0609,-0.0604,-0.0567,-0.0557,-0.0677,-0.0677,-0.0677,-0.0677,-0.0677,0,-0.0006,0.0001,0.0036,0.0057,0.0092,0.0056,0.006,0.0019,-0.0038,-0.0067,-0.0176,-0.0228,-0.0376,-0.0439,-0.0516,-0.0544,-0.0582,-0.0578,-0.0583,-0.0574,-0.0566,-0.0679,-0.0679,-0.0676,-0.0676,-0.0676,-0.0676,0,0.002,0.0042,0.0087,0.0113,0.0127,0.0149,0.0133,0.0122,0.0075,0.0036,0.002,-0.0122,-0.0208,-0.0326,-0.0429,-0.0466,-0.0515,-0.0497,-0.0464,-0.0463,-0.0505,-0.0508,-0.0439,-0.0436,-0.0433,-0.043,-0.0428,0,0.0044,0.0083,0.0136,0.0171,0.0193,0.0223,0.0233,0.0192,0.0169,0.0088,0.0068,-0.0017,-0.0088,-0.0193,-0.0254,-0.0313,-0.0415,-0.033,-0.0375,-0.0464,-0.0477,-0.0484,-0.049,-0.0356,-0.0353,-0.0351,-0.035,0,0.0086,0.0103,0.0148,0.0224,0.0265,0.0295,0.0305,0.0303,0.0244,0.0214,0.0151,0.0104,0.0033,-0.0059,-0.0104,-0.0148,-0.0328,-0.0285,-0.0391,-0.04,-0.0378,-0.0393,-0.0404,-0.0332,-0.0334,-0.0335,-0.0336,-0.0337,0.0114,0.0142,0.02,0.0269,0.0315,0.0351,0.0372,0.0363,0.0349,0.0303,0.0245,0.0183,0.0019,-0.0022,-0.0067,-0.0081,-0.0111,-0.0206,-0.0216,-0.0228,-0.0202,-0.0174,-0.0084,-0.0085,-0.0085,-0.0085,-0.0086,0,0.0154,0.0169,0.0232,0.0311,0.0355,0.0376,0.0406,0.0407,0.0404,0.0347,0.0327,0.0157,0.0113,-0.002,0.0017,-0.0001,-0.0026,-0.0061,-0.0147,-0.0162,-0.0177,-0.0153,-0.002,-0.002,-0.002,-0.002,0,0,0.017,0.0213,0.0243,0.0329,0.0381,0.0435,0.0459,0.0473,0.0432,0.0323,0.027,0.0237,0.006,0.0022,-0.0031,-0.0013,-0.0074,0.0006,-0.004,-0.0149,-0.0164,-0.0247,-0.0224,0,0,0,0,0]}],[{"header":{"parameterUnit":"m.s-1","parameterCategory":2,"la1":30.2991,"la2":30.254,"lo1":-89.0895,"lo2":-89.0444,"dy":0.0017,"dx":0.0017,"nx":28,"ny":28,"refTime":"2023-07-22T21:00:00:Z","depth":"4","parameterNumber":2,"parameterNumberName":"U-component_of_CURRENTS"},"data":[0,0,0,0,0,0,0,0,0,0,0,0,0,0,0,0,0,0,0,0,0,0,0,0,0,0,0,0,0,0,0,0,0,0,0,0,0,0,0,0,0,0,0,0,0,0,0,0,0,0,0,0,0,0,0,0,0,0,-0.0698,-0.0698,0,-0.0714,-0.0714,-0.0715,-0.0746,-0.0746,-0.0746,-0.0746,-0.0781,-0.0781,-0.0782,0,0,0,0,0,0,0,0,0,0,0,0,0,-0.0648,-0.065,-0.0698,-0.0698,-0.0698,-0.0714,-0.0714,-0.0715,-0.0746,-0.0746,-0.0746,-0.0747,-0.0781,-0.0781,-0.0782,0,0,0,0,0,0,0,0,0,0,0,0,0,-0.0671,-0.065,-0.0698,-0.0713,-0.0714,-0.0714,-0.0714,-0.0715,-0.0746,-0.0746,-0.0746,-0.0747,-0.078,-0.0781,-0.0782,-0.078,0,0,-0.0785,-0.0786,0,0,0,0,0,0,0,0,-0.067,-0.0673,-0.0711,-0.0712,-0.0713,-0.0725,-0.0709,-0.0737,-0.0745,-0.0737,-0.0746,-0.0747,-0.0761,-0.0764,-0.0771,-0.0782,-0.0783,-0.0785,-0.0786,-0.0786,-0.0787,0,0,0,0,0,0,0,-0.0668,-0.0672,-0.0708,-0.071,-0.0712,-0.0702,-0.0706,-0.0714,-0.075,-0.0738,-0.0739,-0.0735,-0.0763,-0.077,-0.0772,-0.0784,-0.0785,-0.0786,-0.0787,-0.0787,-0.0863,-0.0864,0,0,0,0,0,0,-0.0661,-0.0671,-0.0708,-0.0708,-0.0688,-0.0702,-0.0708,-0.0724,-0.0749,-0.0753,-0.0735,-0.0737,-0.0768,-0.0771,-0.0773,-0.0832,-0.0786,-0.0787,-0.0788,-0.0861,-0.0863,-0.0864,0,0,0,0,0,0,-0.0661,-0.0665,-0.0707,-0.0686,-0.069,-0.0703,-0.0721,-0.0724,-0.0754,-0.0746,-0.0751,-0.0764,-0.0768,-0.0772,-0.0791,-0.0831,-0.0788,-0.0789,-0.086,-0.0862,-0.0864,-0.091,0,0,0,0,0,0,-0.066,-0.0666,-0.0681,-0.0686,-0.0691,-0.072,-0.072,-0.0724,-0.0747,-0.075,-0.0772,-0.0774,-0.0769,-0.079,-0.0792,-0.0831,-0.0789,-0.0858,-0.086,-0.0863,-0.0907,-0.0914,-0.0919,0,0,0,0,0,-0.0658,-0.0664,-0.0682,-0.0686,-0.0711,-0.0721,-0.0723,-0.0734,-0.0748,-0.0764,-0.0774,-0.0775,-0.0809,-0.0791,-0.0794,-0.0834,-0.0856,-0.086,-0.0863,-0.0904,-0.0912,-0.0919,0,0,0,0,0,0,-0.0651,-0.0668,-0.0688,-0.0701,-0.072,-0.0725,-0.0739,-0.0749,-0.0771,-0.078,-0.0781,-0.0784,-0.0819,-0.0818,-0.0798,-0.0865,-0.0838,-0.0842,-0.0869,-0.0876,-0.0883,-0.0908,-0.079,0,0,0,0,0,-0.0657,-0.0672,-0.0689,-0.0706,-0.0721,-0.074,-0.0749,-0.0758,-0.077,-0.0783,-0.0799,-0.0817,-0.0831,-0.0846,-0.0856,-0.0887,-0.0888,-0.0919,-0.0925,-0.093,-0.0954,-0.1006,-0.1019,-0.0875,-0.0875,-0.0875,0,0,-0.0667,-0.0671,-0.0686,-0.0706,-0.0729,-0.0748,-0.0749,-0.077,-0.0784,-0.0781,-0.0821,-0.0837,-0.0842,-0.0876,-0.0894,-0.0883,-0.096,-0.0934,-0.0939,-0.096,-0.101,-0.1024,-0.1037,-0.0877,-0.0877,-0.0876,0,0,-0.0669,-0.0699,-0.0712,-0.073,-0.0753,-0.0763,-0.0776,-0.0802,-0.0818,-0.085,-0.0853,-0.0886,-0.092,-0.0927,-0.0934,-0.0981,-0.0988,-0.1003,-0.1062,-0.1111,-0.1123,-0.1135,-0.1102,-0.111,-0.1011,-0.1011,-0.1011,0,-0.0677,-0.0697,-0.0718,-0.0731,-0.0747,-0.0776,-0.0795,-0.0812,-0.084,-0.0854,-0.0872,-0.0939,-0.0941,-0.0977,-0.1007,-0.0995,-0.1014,-0.1028,-0.112,-0.1132,-0.1142,-0.1106,-0.1115,-0.1014,-0.1013,-0.1013,-0.1013,0,-0.0689,-0.0712,-0.0724,-0.0757,-0.0777,-0.0798,-0.0823,-0.0853,-0.0887,-0.0903,-0.0963,-0.0985,-0.1037,-0.1043,-0.1048,-0.113,-0.111,-0.1116,-0.11,-0.116,-0.1117,-0.1125,-0.1018,-0.1017,-0.1016,-0.1015,0,0,-0.0685,-0.0724,-0.073,-0.0751,-0.0791,-0.0806,-0.0841,-0.0872,-0.09,-0.0957,-0.1008,-0.1058,-0.1109,-0.1124,-0.1143,-0.1193,-0.1261,-0.1215,-0.1217,-0.118,-0.134,-0.1157,-0.1146,-0.1313,-0.1316,-0.1319,-0.1259,0,-0.0692,-0.0711,-0.0731,-0.077,-0.0791,-0.083,-0.0854,-0.0886,-0.0932,-0.0988,-0.1036,-0.1105,-0.1127,-0.1189,-0.1243,-0.1272,-0.1296,-0.1274,-0.1291,-0.1289,-0.112,-0.1155,-0.1328,-0.1265,-0.1267,-0.1268,-0.1269,0,-0.0694,-0.0704,-0.0734,-0.0772,-0.0789,-0.0821,-0.0879,-0.0908,-0.0976,-0.1021,-0.1115,-0.1171,-0.1267,-0.1285,-0.1368,-0.1372,-0.1376,-0.1376,-0.1374,-0.1203,-0.1123,-0.1207,-0.1283,-0.1282,-0.1281,-0.128,-0.1279,0,-0.0667,-0.0706,-0.0726,-0.0744,-0.0792,-0.0825,-0.0868,-0.0927,-0.0953,-0.1081,-0.1138,-0.1245,-0.1332,-0.1386,-0.1417,-0.1429,-0.1472,-0.1467,-0.1276,-0.1259,-0.1421,-0.141,-0.1514,-0.1514,-0.1514,-0.1515,-0.1515,0,-0.065,-0.0671,-0.0724,-0.0738,-0.0765,-0.0825,-0.0878,-0.0927,-0.1012,-0.1032,-0.1186,-0.1211,-0.1388,-0.1427,-0.1433,-0.1366,-0.1484,-0.1288,-0.125,-0.1431,-0.1423,-0.1422,-0.1412,-0.1512,-0.1513,-0.1513,-0.1514,0,-0.0617,-0.0649,-0.0674,-0.0733,-0.0752,-0.0786,-0.0874,-0.0904,-0.1014,-0.1059,-0.1119,-0.1237,-0.1251,-0.1331,-0.1385,-0.1362,-0.1321,-0.1257,-0.1399,-0.1369,-0.106,-0.1053,-0.1038,-0.1032,-0.1026,-0.1021,-0.1018,0,-0.0598,-0.0608,-0.0659,-0.0666,-0.0701,-0.0765,-0.0788,-0.0893,-0.0914,-0.1006,-0.0997,-0.1077,-0.1123,-0.105,-0.1135,-0.1107,-0.1094,-0.1113,-0.1139,-0.1055,-0.1021,-0.1023,-0.1024,-0.1009,-0.1007,-0.1006,-0.1004,0,-0.0558,-0.0586,-0.0601,-0.0615,-0.0645,-0.0663,-0.0713,-0.072,-0.081,-0.0915,-0.0865,-0.0884,-0.0864,-0.0891,-0.0907,-0.0879,-0.1143,-0.1055,-0.1067,-0.1091,-0.1019,-0.0991,-0.0999,-0.0985,-0.0988,-0.099,-0.0991,0,-0.0529,-0.0527,-0.0547,-0.0557,-0.0568,-0.0544,-0.0592,-0.0596,-0.0628,-0.0727,-0.067,-0.0715,-0.0794,-0.0757,-0.0734,-0.0735,-0.0715,-0.0764,-0.0791,-0.0813,-0.0772,-0.065,-0.0473,0,0,0,0,0,-0.0495,-0.0486,-0.0484,-0.0469,-0.0471,-0.0474,-0.0512,-0.0561,-0.0637,-0.0562,-0.0622,-0.0567,-0.0547,-0.0561,-0.0507,-0.0606,-0.0723,-0.0546,-0.0795,-0.0879,-0.0901,-0.0877,0,0,0,0,0,0,-0.047,-0.0471,-0.0464,-0.039,-0.0357,-0.0342,-0.0361,-0.0412,-0.0378,-0.0461,-0.0433,-0.052,-0.0488,-0.0539,-0.0483,-0.0492,-0.0638,-0.0573,-0.0571,-0.0866,-0.0886,-0.0904,-0.0887,0,0,0,0,0]},{"header":{"parameterUnit":"m.s-1","parameterCategory":2,"la1":30.2991,"la2":30.254,"lo1":-89.0895,"lo2":-89.0444,"dy":0.0017,"dx":0.0017,"nx":28,"ny":28,"refTime":"2023-07-22T21:00:00:Z","depth":"4","parameterNumber":3,"parameterNumberName":"V-component_of_CURRENTS"},"data":[0,0,0,0,0,0,0,0,0,0,0,0,0,0,0,0,0,0,0,0,0,0,0,0,0,0,0,0,0,0,0,0,0,0,0,0,0,0,0,0,0,0,0,0,0,0,0,0,0,0,0,0,0,0,0,0,0,0,0.0053,0.0053,0,0.0074,0.0074,0.0075,0.0107,0.0107,0.0108,0.0108,0.0115,0.0115,0.0115,0,0,0,0,0,0,0,0,0,0,0,0,0,0.0078,0.0077,0.0053,0.0053,0.0053,0.0074,0.0074,0.0075,0.0107,0.0107,0.0108,0.0108,0.0115,0.0115,0.0115,0,0,0,0,0,0,0,0,0,0,0,0,0,0.0082,0.0077,0.0053,0.007,0.0072,0.0074,0.0074,0.0075,0.0107,0.0107,0.0108,0.0108,0.0115,0.0115,0.0115,0.0103,0,0,0.0114,0.0114,0,0,0,0,0,0,0,0,0.0081,0.0081,0.0068,0.0069,0.0071,0.0086,0.0085,0.0083,0.0107,0.0096,0.0108,0.0109,0.0102,0.0103,0.011,0.0103,0.0104,0.0114,0.0114,0.0114,0.0114,0,0,0,0,0,0,0,0.0081,0.008,0.0064,0.0068,0.0069,0.0088,0.009,0.0085,0.0097,0.0097,0.0099,0.0097,0.0104,0.011,0.011,0.0104,0.0114,0.0114,0.0114,0.0114,0.0078,0.0078,0,0,0,0,0,0,0.0071,0.008,0.0063,0.0064,0.0075,0.0087,0.0089,0.0083,0.0098,0.01,0.0096,0.0098,0.011,0.011,0.011,0.0092,0.0114,0.0114,0.0114,0.0079,0.0078,0.0077,0,0,0,0,0,0,0.0071,0.0069,0.0062,0.0071,0.0071,0.0086,0.0079,0.0083,0.0089,0.0097,0.01,0.0099,0.011,0.011,0.0099,0.0093,0.0114,0.0114,0.008,0.0079,0.0078,0.0058,0,0,0,0,0,0,0.0072,0.0069,0.0065,0.007,0.007,0.006,0.0078,0.0083,0.0086,0.0089,0.01,0.0101,0.0111,0.0099,0.0099,0.0093,0.0114,0.0081,0.008,0.0078,0.006,0.0057,0.0054,0,0,0,0,0,0.0073,0.006,0.0064,0.0063,0.0063,0.0059,0.0062,0.0076,0.0085,0.0085,0.0088,0.0101,0.009,0.0098,0.0098,0.0092,0.0082,0.008,0.0078,0.0062,0.0057,0.0054,0,0,0,0,0,0,0.0064,0.0062,0.0067,0.0053,0.0056,0.0064,0.0065,0.0072,0.0076,0.0077,0.0089,0.009,0.0077,0.0082,0.0092,0.0076,0.0088,0.0086,0.0076,0.0072,0.0069,0.0066,0.0113,0,0,0,0,0,0.006,0.0053,0.0053,0.0043,0.0044,0.0054,0.0056,0.0062,0.0064,0.0067,0.007,0.0072,0.0069,0.0069,0.0065,0.0055,0.0084,0.0051,0.0047,0.0045,0.0041,0.0092,0.0094,0.0071,0.0071,0.0071,0,0,0.0053,0.0051,0.0046,0.0041,0.0047,0.0036,0.0057,0.0054,0.0044,0.0065,0.0051,0.0057,0.0062,0.0051,0.0047,0.0057,0.0064,0.0042,0.004,0.0038,0.009,0.0093,0.0095,0.007,0.007,0.0071,0,0,0.0033,0.0034,0.0023,0.002,0.0021,0.0023,0.002,0.0022,0.0026,0.0011,0.0025,0.0024,0.0017,0.0023,0.0024,-0.0002,0.0043,0.0,-0.0013,0.0036,0.0039,0.0042,0.0077,0.0083,0.0003,0.0003,0.0003,0,0.0025,0.001,0.0019,0.0006,-0.0003,0.0014,-0.0005,-0.0002,-0.0006,-0.0011,0.0001,-0.0008,0.0002,-0.0009,-0.0008,-0.0008,0.003,0.0004,0.0035,0.0038,0.0042,0.0077,0.0084,0.0002,0.0002,0.0002,0.0002,0,-0.0002,-0.0015,-0.0023,-0.0036,-0.0044,-0.0056,-0.0058,-0.0065,-0.0061,-0.0059,-0.007,-0.0055,-0.0057,-0.0051,-0.0032,-0.0013,0.0009,0.0025,0.005,0.0043,0.008,0.0088,0.0,0.0001,0.0001,0.0001,0,0,-0.0024,-0.0038,-0.0043,-0.0056,-0.0068,-0.0081,-0.0102,-0.0115,-0.0133,-0.0124,-0.0144,-0.0128,-0.0109,-0.0106,-0.0082,-0.0033,0.0029,0.0014,0.0017,0.0057,0.0141,0.0038,0.0037,0.0068,0.0069,0.007,0.0157,0,-0.0047,-0.0079,-0.0084,-0.0122,-0.0138,-0.0141,-0.0164,-0.0176,-0.0179,-0.0195,-0.017,-0.0176,-0.0132,-0.0128,-0.0074,-0.0004,0.005,0.0003,0.0133,0.0136,0.0054,0.0042,0.0074,0.0163,0.0165,0.0166,0.0167,0,-0.0077,-0.0093,-0.013,-0.0165,-0.0174,-0.0199,-0.0237,-0.0255,-0.0266,-0.0268,-0.0262,-0.0239,-0.0194,-0.0148,-0.0019,-0.0042,0.005,0.0115,0.012,0.0035,0.0047,0.0171,0.0182,0.0181,0.0179,0.0178,0.0178,0,-0.0099,-0.0133,-0.0163,-0.0175,-0.0208,-0.0234,-0.0255,-0.0279,-0.03,-0.0311,-0.0325,-0.0273,-0.0247,-0.0128,-0.0007,0.0008,0.014,0.0172,0.0163,0.0157,0.0238,0.0234,0.0278,0.0277,0.0277,0.0277,0.0277,0,-0.0128,-0.0157,-0.0177,-0.0197,-0.0244,-0.0259,-0.0313,-0.033,-0.0355,-0.0384,-0.0358,-0.037,-0.0229,-0.015,-0.0023,0.0072,0.0131,0.0151,0.0169,0.0225,0.0219,0.0244,0.0239,0.028,0.028,0.0279,0.0278,0,-0.0156,-0.0165,-0.0205,-0.024,-0.0258,-0.0294,-0.0351,-0.0387,-0.0404,-0.0442,-0.0443,-0.0416,-0.034,-0.022,-0.004,0.0031,0.0145,0.0174,0.0203,0.0223,0.014,0.0133,0.017,0.0167,0.0164,0.0162,0.016,0,-0.0174,-0.019,-0.0237,-0.0267,-0.0289,-0.0341,-0.0382,-0.0411,-0.0436,-0.0474,-0.0485,-0.0455,-0.0426,-0.0255,-0.0139,0.004,0.0074,0.0145,0.0159,0.0114,0.0128,0.0125,0.0121,0.0156,0.0156,0.0155,0.0154,0,-0.0201,-0.0214,-0.0244,-0.0297,-0.0345,-0.0403,-0.0449,-0.0467,-0.0495,-0.0514,-0.0505,-0.0464,-0.0413,-0.0293,-0.0177,-0.0036,0.0099,0.0119,0.0127,0.0141,0.0098,0.0114,0.0114,0.0146,0.0147,0.0148,0.0148,0,-0.022,-0.0245,-0.0276,-0.0323,-0.0386,-0.044,-0.0469,-0.0486,-0.0507,-0.0514,-0.0515,-0.0477,-0.0437,-0.0336,-0.0224,-0.0127,-0.0089,-0.0006,0.0009,0.002,-0.0071,-0.015,-0.0171,0,0,0,0,0,-0.0233,-0.0255,-0.03,-0.0352,-0.0413,-0.0444,-0.0501,-0.0518,-0.0532,-0.0516,-0.0505,-0.046,-0.0373,-0.0348,-0.0265,-0.0287,-0.0087,-0.019,0.0014,0.0096,0.0107,0.0013,0,0,0,0,0,0,-0.0245,-0.0281,-0.0295,-0.0357,-0.0394,-0.0462,-0.0499,-0.0516,-0.049,-0.0492,-0.0438,-0.0425,-0.0333,-0.0401,-0.0254,-0.024,-0.0096,-0.0151,-0.015,0.009,0.01,0.0108,0.0015,0,0,0,0,0]}]]